Torna al catalogo

STARLINK-2533

AttivoComunicazioniVLEO
NORAD 48294·PAYLOAD·🇺🇸 United States

Lanciato Apr 29, 2021 da Cape Canaveral Space Force Station

Loading…

Prossimi Passaggi (prossime 24 ore)

TLE

AggiornatoSource: CelesTrak SupGP

Epoca: Sep 14, 2026, 21:51 UTC

1 48294C 21036U   26257.91090278  .00053181  00000+0  17098-2 0  2578
2 48294  53.1582 274.7647 0001250  91.1211 271.9138 15.31682304    18

Traccia STARLINK-2533 in tempo reale con AllMySat

Download on the App Store